TimeCST,TemperatureF,Dew PointF,Humidity,Sea Level PressureIn,VisibilityMPH,Wind Direction,Wind SpeedMPH,Gust SpeedMPH,PrecipitationIn,Events,Conditions,WindDirDegrees,DateUTC
12:15 AM,37.4,30.2,75,29.78,10.0,South,5.8,-,N/A,,Clear,180,2012-12-18 06:15:00
12:35 AM,37.4,30.2,75,29.78,10.0,South,6.9,-,N/A,,Clear,190,2012-12-18 06:35:00
12:55 AM,39.2,30.2,70,29.78,10.0,South,6.9,-,N/A,,Clear,190,2012-12-18 06:55:00
1:16 AM,37.4,30.2,75,29.78,10.0,South,5.8,-,N/A,,Clear,190,2012-12-18 07:16:00
1:35 AM,37.4,30.2,75,29.77,10.0,South,5.8,-,N/A,,Clear,180,2012-12-18 07:35:00
1:55 AM,35.6,30.2,81,29.76,10.0,South,6.9,-,N/A,,Clear,170,2012-12-18 07:55:00
2:16 AM,37.4,30.2,75,29.77,10.0,South,8.1,-,N/A,,Clear,190,2012-12-18 08:16:00
2:35 AM,37.4,30.2,75,29.76,10.0,South,6.9,-,N/A,,Clear,180,2012-12-18 08:35:00
2:55 AM,39.2,30.2,70,29.77,10.0,South,5.8,-,N/A,,Clear,180,2012-12-18 08:55:00
3:35 AM,37.4,30.2,75,29.76,10.0,South,6.9,-,N/A,,Clear,180,2012-12-18 09:35:00
3:55 AM,37.4,30.2,75,29.75,10.0,South,5.8,-,N/A,,Clear,180,2012-12-18 09:55:00
4:15 AM,39.2,30.2,70,29.74,10.0,South,6.9,-,N/A,,Clear,180,2012-12-18 10:15:00
4:36 AM,37.4,30.2,75,29.74,10.0,South,5.8,-,N/A,,Clear,180,2012-12-18 10:36:00
4:55 AM,39.2,30.2,70,29.74,10.0,South,5.8,-,N/A,,Clear,190,2012-12-18 10:55:00
5:15 AM,39.2,30.2,70,29.74,10.0,South,6.9,-,N/A,,Clear,190,2012-12-18 11:15:00
6:36 AM,39.2,30.2,70,29.74,10.0,South,6.9,-,N/A,,Clear,190,2012-12-18 12:36:00
6:55 AM,39.2,30.2,70,29.75,10.0,South,8.1,-,N/A,,Clear,190,2012-12-18 12:55:00
7:15 AM,39.2,30.2,70,29.74,10.0,South,5.8,-,N/A,,Clear,180,2012-12-18 13:15:00
7:35 AM,39.2,30.2,70,29.74,10.0,South,8.1,-,N/A,,Clear,190,2012-12-18 13:35:00
7:56 AM,42.8,32.0,66,29.75,10.0,South,8.1,-,N/A,,Clear,190,2012-12-18 13:56:00
8:15 AM,42.8,33.8,70,29.74,10.0,South,8.1,-,N/A,,Clear,180,2012-12-18 14:15:00
8:35 AM,44.6,33.8,66,29.75,10.0,South,5.8,-,N/A,,Clear,180,2012-12-18 14:35:00
8:55 AM,46.4,33.8,62,29.75,10.0,South,8.1,-,N/A,,Clear,190,2012-12-18 14:55:00
9:15 AM,48.2,33.8,58,29.75,10.0,South,9.2,-,N/A,,Clear,190,2012-12-18 15:15:00
9:35 AM,50.0,35.6,58,29.75,10.0,SSW,11.5,16.1,N/A,,Clear,200,2012-12-18 15:35:00
9:55 AM,51.8,35.6,54,29.76,10.0,SSW,11.5,-,N/A,,Clear,200,2012-12-18 15:55:00
10:35 AM,55.4,33.8,44,29.77,10.0,SSW,11.5,19.6,N/A,,Clear,210,2012-12-18 16:35:00
11:35 AM,59.0,33.8,39,29.77,10.0,WSW,17.3,-,N/A,,Clear,240,2012-12-18 17:35:00
11:55 AM,59.0,32.0,36,29.76,10.0,WSW,15.0,-,N/A,,Clear,250,2012-12-18 17:55:00
12:15 PM,57.2,32.0,38,29.76,10.0,SW,11.5,-,N/A,,Clear,230,2012-12-18 18:15:00
12:36 PM,59.0,33.8,39,29.76,10.0,West,12.7,16.1,N/A,,Clear,260,2012-12-18 18:36:00
12:55 PM,59.0,33.8,39,29.76,10.0,West,11.5,-,N/A,,Clear,260,2012-12-18 18:55:00
1:15 PM,59.0,33.8,39,29.75,10.0,WSW,9.2,-,N/A,,Clear,250,2012-12-18 19:15:00
1:55 PM,60.8,33.8,36,29.75,10.0,West,8.1,-,N/A,,Clear,260,2012-12-18 19:55:00
2:15 PM,60.8,33.8,36,29.75,10.0,West,9.2,-,N/A,,Clear,260,2012-12-18 20:15:00
2:35 PM,60.8,33.8,36,29.75,10.0,West,8.1,-,N/A,,Clear,260,2012-12-18 20:35:00
2:55 PM,60.8,33.8,36,29.76,10.0,WSW,6.9,-,N/A,,Clear,250,2012-12-18 20:55:00
3:15 PM,60.8,33.8,36,29.76,10.0,West,5.8,-,N/A,,Clear,260,2012-12-18 21:15:00
3:35 PM,60.8,33.8,36,29.76,10.0,West,5.8,-,N/A,,Clear,260,2012-12-18 21:35:00
3:56 PM,60.8,33.8,36,29.77,10.0,WNW,4.6,-,N/A,,Clear,290,2012-12-18 21:56:00
4:15 PM,59.0,33.8,39,29.77,9.0,WNW,3.5,-,N/A,,Clear,290,2012-12-18 22:15:00
4:35 PM,57.2,33.8,41,29.77,10.0,Calm,Calm,-,N/A,,Clear,0,2012-12-18 22:35:00
4:56 PM,55.4,33.8,44,29.78,10.0,NW,3.5,-,N/A,,Clear,320,2012-12-18 22:56:00
5:15 PM,51.8,33.8,50,29.79,10.0,Calm,Calm,-,N/A,,Clear,0,2012-12-18 23:15:00
5:35 PM,48.2,33.8,58,29.79,10.0,Calm,Calm,-,N/A,,Clear,0,2012-12-18 23:35:00
6:15 PM,48.2,32.0,54,29.80,10.0,Calm,Calm,-,N/A,,Clear,0,2012-12-19 00:15:00
6:35 PM,44.6,32.0,61,29.80,10.0,Calm,Calm,-,N/A,,Clear,0,2012-12-19 00:35:00
6:55 PM,44.6,35.6,71,29.81,10.0,Calm,Calm,-,N/A,,Clear,0,2012-12-19 00:55:00
7:16 PM,42.8,33.8,70,29.82,10.0,Calm,Calm,-,N/A,,Clear,0,2012-12-19 01:16:00
7:35 PM,44.6,33.8,66,29.82,10.0,Calm,Calm,-,N/A,,Clear,0,2012-12-19 01:35:00
7:55 PM,42.8,33.8,70,29.83,10.0,North,3.5,-,N/A,,Clear,350,2012-12-19 01:55:00
8:35 PM,42.8,32.0,66,29.83,10.0,NNE,3.5,-,N/A,,Clear,30,2012-12-19 02:35:00
8:55 PM,44.6,33.8,66,29.83,10.0,NNE,4.6,-,N/A,,Clear,30,2012-12-19 02:55:00
9:15 PM,44.6,33.8,66,29.83,10.0,ENE,3.5,-,N/A,,Clear,60,2012-12-19 03:15:00
9:35 PM,46.4,33.8,62,29.83,10.0,ENE,4.6,-,N/A,,Clear,70,2012-12-19 03:35:00
9:55 PM,42.8,32.0,66,29.83,10.0,Calm,Calm,-,N/A,,Clear,0,2012-12-19 03:55:00
10:15 PM,44.6,32.0,61,29.82,10.0,East,8.1,-,N/A,,Clear,90,2012-12-19 04:15:00
10:55 PM,42.8,30.2,61,29.83,10.0,ESE,3.5,-,N/A,,Clear,120,2012-12-19 04:55:00
11:15 PM,39.2,30.2,70,29.83,10.0,Calm,Calm,-,N/A,,Clear,0,2012-12-19 05:15:00
11:35 PM,39.2,32.0,75,29.83,10.0,Calm,Calm,-,N/A,,Clear,0,2012-12-19 05:35:00
11:55 PM,37.4,30.2,75,29.83,10.0,Calm,Calm,-,N/A,,Clear,0,2012-12-19 05:55:00